Location: Melbourne
(37.8120°S, 144.9677°E)
Time: 09:23:52
(UTC+11:00)

Daily predictions for brighter satellites

Satellite Brightness Start Highest point End
(mag) Time Altitude Azimuth Time Altitude Azimuth Time Altitude Azimuth
Cosmos 1934 Rocket 4.5 20:00:31 10° SSW 20:06:44 69° W 20:12:57 10° N
Iridium 43 4.0 20:11:27 10° SSE 20:13:41 38° E 20:16:04 10° NNE
Cosmos 1151 Rocket 3.1 20:11:55 10° S 20:16:12 56° E 20:20:27 10° NNE
ALOS 2.6 20:12:19 10° SSE 20:16:51 43° E 20:21:18 10° N
Cosmos 1315 Rocket 3.5 20:13:29 10° NNE 20:17:16 34° E 20:21:06 10° SSE
ATLAS 2AS CENTAUR R/B 3.1 20:12:51 10° NW 20:19:09 60° SW 20:25:09 10° SSE
Cosmos 2297 Rocket 4.3 20:14:48 10° SW 20:19:39 29° WNW 20:24:28 10° NNW
FENGYUN 3A 3.9 20:17:50 10° SSE 20:23:04 47° E 20:28:14 10° N
Cosmos 2151 3.0 20:19:21 10° N 20:23:35 88° E 20:27:53 10° S
Cosmos 1515 Rocket 3.6 20:21:00 10° S 20:25:34 89° E 20:30:02 10° N
Cosmos 2100 Rocket 4.3 20:19:28 10° S 20:25:35 47° ESE 20:31:33 10° NNE
Cosmos 2227 4.3 20:19:57 10° SSW 20:25:36 60° ESE 20:31:09 10° NE
FREGAT/IRIS 3.5 20:28:28 10° SE 20:31:14 29° E 20:33:56 10° NNE
H-2A R/B 3.6 20:28:53 10° SE 20:32:14 29° E 20:35:33 10° NNE
CZ-4 R/B 3.7 20:28:40 10° S 20:32:23 30° WSW 20:36:07 10° NW
NOSS 3-4 (A) 4.3 20:27:25 10° N 20:34:48 46° ENE 20:42:07 10° SE
NOSS 3-4 (C) 4.3 20:27:33 10° N 20:34:55 45° ENE 20:42:13 10° SE
Meteor 1-27 4.4 20:29:55 10° SSW 20:35:33 76° W 20:41:08 10° N
BREEZE-M DEB (TANK) 3.6 20:37:00 10° SSW 20:38:53 21° SSE 20:40:24 14° ESE
Cosmos 2360 Rocket 3.3 20:37:11 10° NNE 20:41:29 22° E 20:45:48 10° SE
NOSS 3-2 (A) 4.1 20:36:22 10° SSW 20:42:29 39° SE 20:46:34 18° ENE
Cosmos 1980 Rocket 3.5 20:37:10 10° NW 20:42:37 44° WSW 20:48:05 10° S
Cosmos 1624 Rocket 4.0 20:37:35 10° NNW 20:42:54 81° ENE 20:48:19 10° SSE
Lacrosse 5 4.1 20:40:32 10° S 20:43:22 15° SSE 20:46:12 10° ESE
Cosmos 2228 Rocket 4.2 20:39:15 10° SSW 20:43:34 48° W 20:47:51 10° NNW
ATLAS CENTAUR R/B 1.8 20:40:07 10° SSW 20:44:49 56° SE 20:47:52 19° NE
Cosmos 2058 3.9 20:40:52 10° NNW 20:44:52 50° W 20:48:57 10° S
Cosmos 1371 Rocket 4.2 20:40:45 10° NNW 20:46:02 78° WSW 20:51:21 10° SSE
SPOT 3 Rocket 3.8 20:41:21 10° S 20:46:34 75° WSW 20:51:44 10° NNW
CENTAUR R/B 4.3 20:43:44 10° S 20:46:49 14° SSE 20:49:46 10° ESE
Helios 1B rocket 3.0 20:44:21 17° NE 20:47:08 41° ESE 20:51:03 10° S
Cosmos 1000 Rocket 4.4 20:42:06 10° N 20:48:12 69° E 20:54:23 10° SSE
Cosmos 2322 Rocket 2.1 20:43:09 10° N 20:48:48 69° ENE 20:54:30 10° SSE
Cosmos 2263 Rocket 2.9 20:43:43 10° S 20:48:58 37° ESE 20:52:14 20° ENE
CZ-2D R/B 4.5 20:48:15 10° SE 20:51:19 22° E 20:51:19 22° E
Cosmos 1869 3.6 20:49:57 10° S 20:53:57 48° E 20:56:18 22° NE
Cosmos 1455 2.7 20:50:29 10° SSW 20:54:21 63° W 20:58:12 10° N
Cosmos 2173 Rocket 4.0 20:49:35 10° S 20:56:04 76° E 21:02:23 10° N
ATLAS 3B R/B 3.0 20:48:48 10° SSW 20:56:17 86° WNW 21:02:58 14° NNE
Cosmos 921 Rocket 3.4 20:53:47 10° NNE 20:57:43 38° E 21:01:40 10° SSE
Cosmos 1190 Rocket 3.9 21:06:08 10° SSW 21:11:26 84° ESE 21:14:45 23° NNE
Cosmos 1140 Rocket 4.2 21:06:51 10° S 21:11:39 35° ESE 21:13:08 30° E
Cosmos 2322 4.3 21:10:47 26° NE 21:12:41 33° ENE 21:17:43 10° SE
GEOS 3 Rocket 4.0 21:11:26 29° ENE 21:13:45 49° SE 21:18:42 10° SSW
Cosmos 2061 Rocket 4.1 21:09:33 10° S 21:16:00 85° W 21:22:16 10° N
Cosmos 2123 Rocket 4.0 21:10:55 10° N 21:17:11 67° E 21:23:32 10° SSE
Cosmos 1954 Rocket 4.4 21:13:01 10° S 21:18:09 47° ESE 21:19:47 35° ENE
SL-08 R/B 4.4 21:12:07 10° S 21:18:26 68° E 21:22:20 24° NNE
Intercosmos 24 Rocket 4.2 21:15:24 10° S 21:19:24 63° E 21:20:02 52° NE
USA 238 DEB 4.1 21:16:19 10° SW 21:23:16 62° WNW 21:28:12 20° NNE
USA 238 4.1 21:16:26 10° SW 21:23:23 63° WNW 21:28:17 20° NNE
Cosmos 1725 Rocket 4.0 21:19:08 10° S 21:25:23 65° E 21:28:36 30° NNE
Cosmos 1707 Rocket 3.5 21:27:48 10° S 21:32:13 84° W 21:33:42 41° N
Sich 1 3.1 21:29:04 16° N 21:32:33 79° W 21:37:06 10° S
HJ-1C 4.2 21:29:57 10° S 21:33:18 52° WSW 21:35:17 21° NW
Cosmos 2233 Rocket 4.3 21:27:36 10° S 21:33:36 46° E 21:35:01 40° ENE
SJ-6B 3.3 21:29:40 10° S 21:33:42 61° WSW 21:37:13 13° NNW
Meteor 1-29 3.2 21:34:30 58° NW 21:34:57 66° WNW 21:38:29 10° SSW
DMSP B5D2-2 4.4 21:35:25 42° E 21:36:02 44° ESE 21:41:02 10° S
USA 215 4.1 21:32:59 25° E 21:36:06 39° SSE 21:42:07 10° SSW
Cosmos 1346 Rocket 3.3 21:36:26 10° SSW 21:40:32 59° W 21:41:45 40° NNW
Cosmos 676 Rocket 3.9 21:36:01 10° SSW 21:41:21 88° WNW 21:42:56 47° NNE
Cosmos 724 4.5 21:35:27 10° SSW 21:41:40 74° WNW 21:44:13 37° NNE
SL-16 R/B 3.5 21:38:59 10° NW 21:44:18 41° WSW 21:49:42 10° S
OAO 3 Copernicus 4.2 21:40:01 10° W 21:45:04 65° N 21:45:25 63° NNE
Cosmos 407 Rocket 4.3 21:42:17 10° SSW 21:47:28 49° WNW 21:50:11 26° NNW
Cosmos 1452 Rocket 3.8 21:43:16 10° NNW 21:48:33 69° WSW 21:53:54 10° SSE
Cosmos 1666 Rocket 4.3 21:46:04 18° NNW 21:49:09 51° W 21:53:29 10° S
Envisat 2.9 21:44:42 10° SSE 21:49:51 67° ENE 21:50:11 65° NE
Cosmos 2237 4.2 21:50:29 57° ENE 21:50:29 57° ENE 21:56:02 10° SSE
BREEZE-M DEB (TANK) 3.1 21:45:55 10° SW 21:56:10 89° NW 21:56:20 83° NE
Cosmos 1447 Rocket 4.3 21:54:48 49° NNE 21:56:32 74° E 22:02:45 10° S
Cosmos 1933 Rocket 4.4 21:58:32 42° SSE 21:58:32 42° SSE 22:01:41 10° SSE
Cosmos 1633 Rocket 3.8 21:55:10 28° NW 21:57:14 51° W 22:01:38 10° S
Resurs 01 Rocket 1.6 21:54:22 10° S 21:58:51 83° WSW 21:58:51 83° WSW
USA 32 4.4 21:57:22 27° NNW 22:00:11 61° W 22:05:28 10° S
NOSS 3-2 (C) 3.3 21:54:57 10° SW 22:01:24 82° WNW 22:02:30 61° NNE
In-Cosmos 22 Rocket 4.4 21:59:16 28° NNW 22:02:26 75° W 22:08:14 10° S
ARGOS Delta rocket 3.8 22:07:20 72° SW 22:07:20 72° SW 22:11:27 10° SSW
Meteor 1-26 Rocket 4.2 22:02:24 10° S 22:08:19 69° E 22:08:25 69° E
Meteor 2-3 Rocket 3.8 22:10:05 61° ESE 22:10:05 61° ESE 22:15:03 10° SSE
Cosmos 1340 4.4 22:05:42 10° S 22:07:42 29° S 22:07:42 29° S
Resurs 1-3 4.0 22:06:28 10° S 22:10:45 63° WSW 22:10:45 63° WSW
Cosmos 1844 Rocket 3.5 22:07:19 10° S 22:12:00 37° SE 22:12:00 37° SE
RESURS DK-1 4.2 22:17:58 26° S 22:17:58 26° S 22:19:54 10° SSE
Cosmos 1862 Rocket 4.4 22:11:54 10° S 22:15:09 48° S 22:15:09 48° S
Cosmos 614 Rocket 4.3 22:15:28 10° SSW 22:20:26 58° W 22:20:26 58° W
ATLAS CENTAUR R/B 4.0 22:20:48 10° WSW 22:23:16 14° WNW 22:24:10 14° WNW
Cosmos 2360 Rocket 3.1 22:19:38 10° NW 22:25:06 46° WSW 22:30:37 10° S
COSMOS 2428 3.4 22:28:37 44° SSE 22:28:37 44° SSE 22:32:30 10° SSE
Lacrosse 5 2.6 22:22:20 10° SW 22:26:27 47° S 22:26:27 47° S
SeaSat 1 4.5 22:29:10 18° SE 22:29:10 18° SE 22:31:29 10° S
Cosmos 2333 Rocket 4.3 22:34:35 16° SE 22:34:35 16° SE 22:35:42 10° SE
Cosmos 2263 Rocket 3.6 22:27:53 10° SW 22:32:43 29° WNW 22:33:57 27° NW
NOSS 3-2 (A) 4.5 22:27:35 10° SW 22:33:09 34° WNW 22:33:59 32° NW
CENTAUR R/B 2.6 22:32:44 10° SSW 22:37:47 58° S 22:37:47 58° S
COSMOS 2455 3.9 22:52:31 10° SSW 22:56:50 38° SSE 22:56:50 38° SSE
Cosmos 2278 Rocket 3.7 22:56:23 10° S 22:59:41 28° SSE 22:59:41 28° SSE
Cosmos 2219 Rocket 3.7 23:16:58 30° S 23:16:58 30° S 23:19:47 10° SSE
USA 215 3.8 23:20:19 51° WSW 23:20:19 51° WSW 23:25:24 10° SW
Cosmos 2237 Rocket 4.3 23:49:56 21° SSE 23:49:56 21° SSE 23:51:46 10° SSE
